Weather History for Fort Leonard Wood, MO

Change the Weather History Date:

Thursday, September 12, 2013

  Actual Average Record
Temperature  
Mean Temperature 77 °F -  
Max Temperature 86 °F 78 °F 89 °F (1998)
Min Temperature 69 °F 60 °F 49 °F (2014)
Cooling Degree Days 12    
Growing Degree Days 27 (Base 50)    
Moisture  
Dew Point 69 °F    
Average Humidity 80    
Maximum Humidity 98    
Minimum Humidity 59    
Precipitation  
Precipitation 0.07 in - - ()
Sea Level Pressure  
Sea Level Pressure 30.07 in    
Wind  
Wind Speed 6 mph (NW)    
Max Wind Speed 15 mph    
Max Gust Speed 20 mph    
Visibility 10 miles    
Events Rain    
Averages and records for this station are not official NWS values.
T = Trace of Precipitation, MM = Missing Value Source: NWS Daily Summary

Daily Weather History Graph

Daily Weather History Graph

Search for Another Location

Airport:

Trip Planner

Search our weather history database for the weather conditions in past years. The results will help you decide how hot, cold, wet, or windy it might be!

Date:

Astronomy

Sep. 12, 2013 Rise Set
Actual Time 6:48 AM CDT 7:20 PM CDT
Civil Twilight 6:21 AM CDT 7:46 PM CDT
Nautical Twilight 5:50 AM CDT 8:17 PM CDT
Astronomical Twilight 5:18 AM CDT 8:49 PM CDT
Moon 2:08 PM CDT (9/12) No Moon Set
Length of Visible Light 13h 25m
Length of Day
12h 32m
Waxing Crescent, 50% of the Moon is Illuminated
Sep 12
Waxing Crescent
Sep 12
First Quarter
Sep 19
Full
Sep 26
Last Quarter
Oct 4
New

Hourly Weather History & Observations

Time (CDT) Temp. Heat Index Dew Point Humidity Pressure Visibility Wind Dir Wind Speed Gust Speed Precip Events Conditions
12:58 AM 74.7 °F - 70.0 °F 85% 30.06 in 10.0 mi SSW 5.8 mph - N/A   Clear
1:58 AM 73.0 °F - 70.0 °F 90% 30.05 in 10.0 mi Variable 4.6 mph - N/A   Clear
2:58 AM 72.9 °F - 69.8 °F 90% 30.04 in 10.0 mi SSW 4.6 mph - N/A   Clear
3:58 AM 71.8 °F - 69.8 °F 93% 30.04 in 10.0 mi SW 2.3 mph - N/A   Clear
4:58 AM 71.6 °F - 69.4 °F 93% 30.05 in 10.0 mi WSW 3.5 mph - N/A   Clear
5:58 AM 71.1 °F - 69.4 °F 95% 30.06 in 10.0 mi Calm Calm - N/A   Clear
6:58 AM 70.5 °F - 69.4 °F 96% 30.07 in 10.0 mi West 2.3 mph - N/A   Mostly Cloudy
7:58 AM 72.1 °F - 69.4 °F 91% 30.09 in 10.0 mi NW 4.6 mph - N/A   Clear
8:58 AM 76.1 °F - 70.0 °F 81% 30.10 in 10.0 mi NE 10.4 mph - N/A   Clear
9:58 AM 78.6 °F - 70.3 °F 76% 30.10 in 10.0 mi ENE 9.2 mph - N/A   Clear
10:43 AM 80.6 °F 84.6 °F 71.6 °F 74% 30.13 in 10.0 mi NE 9.2 mph - N/A   Mostly Cloudy
10:53 AM 78.8 °F - 69.8 °F 74% 30.13 in 10.0 mi NE 10.4 mph - N/A   Scattered Clouds
10:58 AM 79.9 °F - 70.7 °F 73% 30.11 in 10.0 mi NE 9.2 mph - N/A   Scattered Clouds
11:58 AM 80.8 °F 84.4 °F 70.7 °F 71% 30.11 in 10.0 mi North 8.1 mph - N/A   Mostly Cloudy
12:03 PM 80.6 °F 84.6 °F 71.6 °F 74% 30.13 in 10.0 mi NNE 8.1 mph - N/A   Mostly Cloudy
12:13 PM 80.6 °F 83.9 °F 69.8 °F 70% 30.12 in 9.0 mi Variable 3.5 mph - N/A   Mostly Cloudy
12:58 PM 83.1 °F 87.1 °F 70.0 °F 64% 30.09 in 10.0 mi Variable 3.5 mph - N/A   Partly Cloudy
1:58 PM 85.1 °F 89.1 °F 69.4 °F 59% 30.07 in 10.0 mi Variable 3.5 mph - N/A   Scattered Clouds
2:58 PM 85.1 °F 89.4 °F 69.6 °F 60% 30.04 in 10.0 mi NW 10.4 mph - N/A   Mostly Cloudy
3:09 PM 84.2 °F 88.4 °F 69.8 °F 62% 30.07 in 10.0 mi NNW 15.0 mph 19.6 mph N/A Rain Light Rain
3:28 PM 77.0 °F - 71.6 °F 83% 30.06 in 9.0 mi WNW 5.8 mph - N/A   Mostly Cloudy
3:58 PM 80.4 °F 85.6 °F 74.8 °F 83% 30.04 in 10.0 mi NW 8.1 mph - 0.07 in   Mostly Cloudy
4:58 PM 80.6 °F 84.4 °F 71.2 °F 73% 30.03 in 10.0 mi NNW 10.4 mph - N/A   Scattered Clouds
5:58 PM 78.6 °F - 71.6 °F 79% 30.03 in 10.0 mi WNW 4.6 mph - N/A   Partly Cloudy
6:58 PM 75.0 °F - 71.4 °F 89% 30.03 in 10.0 mi WNW 3.5 mph - N/A   Clear
7:58 PM 71.2 °F - 70.0 °F 96% 30.04 in 10.0 mi West 3.5 mph - N/A   Clear
8:58 PM 71.6 °F - 68.7 °F 91% 30.05 in 10.0 mi WNW 4.6 mph - N/A   Clear
9:58 PM 69.4 °F - 68.9 °F 98% 30.05 in 10.0 mi Calm Calm - N/A   Partly Cloudy
10:58 PM 70.9 °F - 61.5 °F 72% 30.07 in 10.0 mi Variable 6.9 mph - N/A   Clear
11:58 PM 69.3 °F - 54.3 °F 59% 30.08 in 10.0 mi NNE 9.2 mph - N/A   Clear